Location: DARK SKY Beskydy - Park tmavé oblohy, www.darkskybeskydy.cz
(49.4926°N, 18.5016°E)
Time: 20:42:30
(UTC+02:00)

Altair - Pass Details

Date: 19 July 2024
Orbit: 1502 x 1682 km, 47.2° (Epoch: 19 July)

Event Time Altitude Azimuth Distance (km) Brightness Sun altitude
Rises 00:28:09 0° 285° (WNW) 4,645 10.3 -19.5°
Reaches altitude 10° 00:31:15 10° 281° (W) 3,656 9.7 -19.6°
Maximum altitude 00:40:03 54° 208° (SSW) 1,773 7.5 -19.7°
Enters shadow 00:47:41 15° 136° (SE) 3,297 8.8 -19.7°
